Content
SEND FEEDBACK

Daily
Averages
Monthly
Summary
United States of America

STATEN ISLAND, NEW YORK


Home > North America > United States > New York
Elevation: 152 feet     Latitude: 40 35N     Longitude: 074 09W

WEATHER
 
SELECT A DAY
Number of Records: 189,642;   Date Range: 1/1/95 - 7/29/14
 
SHARE

PRINT THIS DATA

[ ← Previous Day ]
WEATHER ALMANAC - JULY 6, 2013
[ Next Day → ]
[ °C ]   °F
Weather ElementAverageHighLow
Temperature87.1 °F95 °F (3:51 pm)77 °F (5:51 am)
Dewpoint70.8 °F73.9 °F (8:51 am)68 °F (5:51 pm)
Humidity60.2 %84 % (5:51 am)43 % (3:51 pm)
Barometer30.09 in30.14 in (6:51 am)30.02 in (7:51 pm)
Wind Speed11.1 mph16.1 mph (12:51 pm)
Wind Gust23 mph (11:51 am)
Weather ElementAverage
Visibility10 mi
Wind DirectionWSW (247 °)

Weather ElementTotal
Precipitation---
Cooling Degree Days21 (Base 65)
Growing Degree Days36 (Base 50)
Averaged from 23 records on July 6, 2013
WEATHER CONDITIONS BREAKOUT
WIND DIRECTION BREAKOUT
WEATHER BY HOUR - JULY 6, 2013
[ °C ]   °F
Local TimeTemperatureDewpointHumidityBarometerVisibilityWind DirectionWind SpeedGust SpeedPrecipitationEventsConditions
1:51 AM81.0 °F72.0 °F74 %30.13 in10.0 miSW (230°)8.1 mphScattered Clouds
2:51 AM79.0 °F72.0 °F79 %30.13 in10.0 miSW (230°)8.1 mphPartly Cloudy
3:51 AM79.0 °F72.0 °F79 %30.13 in10.0 miSW (230°)9.2 mphPartly Cloudy
4:51 AM78.1 °F72.0 °F81 %30.13 in10.0 miSW (230°)8.1 mphPartly Cloudy
5:51 AM77.0 °F72.0 °F84 %30.13 in10.0 miSW (220°)9.2 mphScattered Clouds
6:51 AM79.0 °F73.0 °F82 %30.14 in10.0 miSW (230°)10.4 mphScattered Clouds
7:51 AM81.0 °F73.0 °F77 %30.14 in10.0 miWSW (250°)12.7 mph19.6 mphScattered Clouds
8:51 AM84.0 °F73.9 °F72 %30.14 in10.0 miWSW (240°)9.2 mphScattered Clouds
9:51 AM87.1 °F73.0 °F63 %30.12 in10.0 miWest (260°)9.2 mphScattered Clouds
10:51 AM89.1 °F72.0 °F57 %30.12 in10.0 miWest (280°)12.7 mphScattered Clouds
11:51 AM91.0 °F70.0 °F50 %30.11 in10.0 miWSW (240°)11.5 mph23.0 mphScattered Clouds
12:51 PM91.9 °F70.0 °F48 %30.10 in10.0 miWest (270°)16.1 mphScattered Clouds
1:51 PM93.9 °F70.0 °F46 %30.09 in10.0 miWest (280°)15.0 mph19.6 mphScattered Clouds
2:51 PM93.0 °F69.1 °F45 %30.07 in10.0 miWest (270°)13.8 mph18.4 mphScattered Clouds
3:51 PM95.0 °F69.1 °F43 %30.06 in10.0 miWest (280°)13.8 mph19.6 mphScattered Clouds
4:51 PM93.9 °F69.1 °F44 %30.05 in10.0 miWSW (250°)12.7 mphScattered Clouds
5:51 PM93.9 °F68.0 °F43 %30.04 in10.0 miWSW (250°)13.8 mph20.7 mphScattered Clouds
6:51 PM93.0 °F68.0 °F44 %30.03 in10.0 miWSW (240°)12.7 mphScattered Clouds
7:51 PM91.0 °F69.1 °F48 %30.02 in10.0 miWest (260°)11.5 mphScattered Clouds
8:51 PM89.1 °F69.1 °F52 %30.03 in10.0 miWSW (240°)6.9 mphScattered Clouds
9:51 PM89.1 °F69.1 °F52 %30.04 in10.0 miWSW (240°)6.9 mphScattered Clouds
10:51 PM87.1 °F71.1 °F59 %30.05 in10.0 miSW (220°)9.2 mphScattered Clouds
11:51 PM86.0 °F72.0 °F63 %30.06 in10.0 miWSW (240°)15.0 mphPartly Cloudy
Hourly data recorded from KEWR, located miles away from Staten Island, New York







STORIES FROM OUR PARTNERS